Back to catalog

PROVES-ALCYONE

AliveScienceVLEO
NORAD 69797·PAYLOAD·🇺🇸 United States
This satellite name has not been confirmed by official sources yet.

Launched Nov 20, 1998 from Baikonur Cosmodrome

Loading…

Next Passes (next 24 hours)

TLE

FreshSource: Space-Track

Epoch: Sep 13, 2026, 22:13 UTC

1 69797U 98067YM  26256.92616072  .00046625  00000-0  67506-3 0  9992
2 69797  51.6295 219.1343 0010542 141.8982 218.2757 15.55351836 11417

Track PROVES-ALCYONE in real time with AllMySat

Download on the App Store